Weather History for Ogallala, NE

Change the Weather History Date:

Thursday, January 30, 2014

  Actual Average Record
Temperature  
Mean Temperature 34 °F -  
Max Temperature 46 °F 37 °F 67 °F (2012)
Min Temperature 21 °F 13 °F -18 °F (1985)
Degree Days  
Heating Degree Days 32    
Moisture  
Dew Point 22 °F    
Average Humidity 69    
Maximum Humidity 89    
Minimum Humidity 47    
Precipitation  
Precipitation 0.01 in - - ()
Sea Level Pressure  
Sea Level Pressure 29.72 in    
Wind  
Wind Speed 13 mph (NNE)    
Max Wind Speed 33 mph    
Max Gust Speed 40 mph    
Visibility 8 miles    
Events Rain , Snow    
Averages and records for this station are not official NWS values.
T = Trace of Precipitation, MM = Missing Value Source: NWS Daily Summary

Daily Weather History Graph

Daily Weather History Graph

Search for Another Location

Airport:

Trip Planner

Search our weather history database for the weather conditions in past years. The results will help you decide how hot, cold, wet, or windy it might be!

Date:

Astronomy

Jan. 30, 2014 Rise Set
Actual Time 6:59 AM MST 5:01 PM MST
Civil Twilight 6:30 AM MST 5:30 PM MST
Nautical Twilight 5:57 AM MST 6:03 PM MST
Astronomical Twilight 5:25 AM MST 6:36 PM MST
Moon 6:26 AM MST (1/30) 5:16 PM MST (1/30)
Length of Visible Light 11h 00m
Length of Day
10h 01m
Waning Crescent, 0% of the Moon is Illuminated
Jan 30
Waning Crescent
Jan 30
New
Feb 6
First Quarter
Feb 14
Full
Feb 22
Last Quarter

Hourly Weather History & Observations

Time (MST) Temp. Windchill Dew Point Humidity Pressure Visibility Wind Dir Wind Speed Gust Speed Precip Events Conditions
12:15 AM 39.7 °F 34.9 °F 20.8 °F 47% 29.39 in 10.0 mi West 6.9 mph - N/A   Overcast
12:35 AM 41.2 °F 36.0 °F 23.4 °F 49% 29.39 in 10.0 mi West 8.1 mph - N/A Rain Light Rain
12:55 AM 40.6 °F 37.5 °F 23.9 °F 51% 29.38 in 10.0 mi West 4.6 mph - N/A   Overcast
1:15 AM 41.9 °F 35.9 °F 25.3 °F 52% 29.38 in 10.0 mi West 10.4 mph - N/A   Overcast
1:35 AM 41.4 °F 35.2 °F 25.5 °F 53% 29.40 in 10.0 mi West 10.4 mph - N/A   Overcast
1:55 AM 41.5 °F 33.8 °F 26.8 °F 56% 29.43 in 10.0 mi West 15.0 mph - N/A   Overcast
2:15 AM 46.9 °F - 35.4 °F 64% 29.44 in 10.0 mi NW 24.2 mph 31.1 mph N/A   Scattered Clouds
2:35 AM 44.1 °F 33.5 °F 34.5 °F 69% 29.45 in 10.0 mi NW 33.4 mph 40.3 mph N/A   Clear
2:55 AM 42.8 °F 33.5 °F 32.0 °F 66% 29.47 in 10.0 mi NNW 23.0 mph 35.7 mph N/A   Clear
3:15 AM 41.5 °F 32.1 °F 31.1 °F 66% 29.47 in 10.0 mi NNW 21.9 mph 27.6 mph N/A   Clear
3:35 AM 41.2 °F 32.4 °F 31.1 °F 67% 29.50 in 10.0 mi NW 18.4 mph 24.2 mph N/A   Clear
3:55 AM 41.0 °F 31.1 °F 31.1 °F 68% 29.50 in 10.0 mi WNW 23.0 mph - N/A   Clear
4:15 AM 41.2 °F 32.4 °F 30.7 °F 66% 29.51 in 10.0 mi WNW 18.4 mph - N/A   Clear
4:35 AM 41.4 °F 31.4 °F 30.2 °F 65% 29.52 in 10.0 mi NW 24.2 mph 29.9 mph N/A   Scattered Clouds
4:55 AM 41.5 °F 31.4 °F 29.3 °F 62% 29.53 in 10.0 mi NW 25.3 mph 31.1 mph N/A   Scattered Clouds
5:15 AM 41.5 °F 32.1 °F 28.8 °F 60% 29.53 in 10.0 mi NW 21.9 mph 27.6 mph N/A   Scattered Clouds
5:35 AM 41.0 °F 31.6 °F 28.8 °F 62% 29.56 in 10.0 mi NW 20.7 mph 26.5 mph N/A   Scattered Clouds
5:55 AM 40.5 °F 31.2 °F 29.1 °F 64% 29.57 in 10.0 mi NW 19.6 mph 25.3 mph N/A   Clear
6:15 AM 39.7 °F 30.9 °F 29.3 °F 66% 29.59 in 10.0 mi NW 17.3 mph 23.0 mph N/A   Clear
6:35 AM 39.6 °F 30.3 °F 29.5 °F 67% 29.61 in 10.0 mi NW 18.4 mph - N/A   Clear
6:55 AM 39.2 °F 29.8 °F 29.3 °F 68% 29.63 in 10.0 mi NNW 18.4 mph 24.2 mph N/A   Clear
7:15 AM 38.5 °F 29.2 °F 28.8 °F 68% 29.64 in 10.0 mi NNW 17.3 mph 25.3 mph N/A   Clear
7:35 AM 35.2 °F 25.4 °F 27.9 °F 74% 29.67 in 10.0 mi North 16.1 mph - N/A   Clear
7:55 AM 34.0 °F 25.5 °F 27.3 °F 77% 29.68 in 10.0 mi North 11.5 mph - N/A   Clear
8:15 AM 33.6 °F 23.3 °F 25.9 °F 73% 29.69 in 10.0 mi North 16.1 mph - N/A   Clear
8:35 AM 33.4 °F 23.5 °F 25.0 °F 71% 29.69 in 10.0 mi North 15.0 mph - N/A   Clear
8:55 AM 32.4 °F 22.1 °F 23.0 °F 68% 29.70 in 10.0 mi NNE 15.0 mph 23.0 mph N/A   Clear
9:15 AM 33.8 °F 26.4 °F 23.0 °F 65% 29.73 in 10.0 mi NNE 9.2 mph - N/A   Clear
9:35 AM 33.1 °F 23.0 °F 22.6 °F 66% 29.73 in 10.0 mi NNE 15.0 mph - N/A   Clear
9:55 AM 33.1 °F 23.4 °F 23.0 °F 66% 29.74 in 10.0 mi NE 13.8 mph - N/A   Clear
10:15 AM 33.1 °F 23.9 °F 21.7 °F 63% 29.75 in 10.0 mi NNE 12.7 mph 20.7 mph N/A   Clear
10:35 AM 33.6 °F 23.3 °F 21.2 °F 60% 29.76 in 10.0 mi NNE 16.1 mph - N/A   Clear
10:55 AM 33.3 °F 23.2 °F 20.5 °F 59% 29.75 in 10.0 mi NNE 15.0 mph - N/A   Clear
11:15 AM 34.2 °F 24.8 °F 20.3 °F 57% 29.75 in 10.0 mi NNE 13.8 mph - N/A   Clear
11:35 AM 33.3 °F 23.7 °F 19.9 °F 58% 29.74 in 10.0 mi North 13.8 mph 18.4 mph N/A   Clear
11:55 AM 32.0 °F 21.6 °F 19.4 °F 60% 29.74 in 10.0 mi NNE 15.0 mph - N/A   Clear
12:15 PM 32.0 °F 22.5 °F 19.2 °F 59% 29.75 in 10.0 mi NNE 12.7 mph - N/A   Clear
12:35 PM 31.1 °F 21.4 °F 18.3 °F 59% 29.75 in 10.0 mi NNE 12.7 mph - N/A   Clear
12:55 PM 30.6 °F 21.8 °F 18.3 °F 60% 29.77 in 10.0 mi ENE 10.4 mph - N/A   Scattered Clouds
1:15 PM 29.7 °F 20.7 °F 18.1 °F 62% 29.77 in 10.0 mi NE 10.4 mph - N/A   Mostly Cloudy
1:35 PM 29.1 °F 20.0 °F 17.6 °F 62% 29.77 in 10.0 mi NE 10.4 mph - N/A   Mostly Cloudy
1:55 PM 28.9 °F 20.4 °F 17.6 °F 63% 29.78 in 10.0 mi NE 9.2 mph - N/A   Mostly Cloudy
2:15 PM 28.4 °F 19.1 °F 17.4 °F 63% 29.79 in 10.0 mi NE 10.4 mph - N/A   Overcast
2:35 PM 29.1 °F 21.3 °F 17.1 °F 61% 29.78 in 10.0 mi NE 8.1 mph - N/A   Overcast
2:55 PM 28.9 °F 19.8 °F 17.1 °F 61% 29.80 in 10.0 mi ENE 10.4 mph - N/A   Overcast
3:15 PM 28.4 °F 20.4 °F 16.7 °F 62% 29.80 in 10.0 mi ENE 8.1 mph - N/A   Overcast
3:35 PM 28.4 °F 19.7 °F 16.7 °F 62% 29.82 in 10.0 mi NE 9.2 mph - N/A   Overcast
3:55 PM 28.2 °F 20.2 °F 16.5 °F 62% 29.83 in 10.0 mi NE 8.1 mph - N/A   Overcast
4:15 PM 27.7 °F 19.6 °F 16.2 °F 62% 29.85 in 10.0 mi ENE 8.1 mph - N/A   Overcast
4:35 PM 27.1 °F 18.2 °F 15.6 °F 62% 29.85 in 10.0 mi ENE 9.2 mph - N/A   Overcast
4:50 PM 26.8 °F 18.5 °F 15.6 °F 63% 29.86 in 10.0 mi NE 8.1 mph - N/A   Overcast
5:15 PM 26.4 °F 17.3 °F 16.7 °F 67% 29.86 in 7.0 mi ENE 9.2 mph - N/A Snow Light Snow
5:35 PM 25.5 °F 16.2 °F 17.6 °F 72% 29.88 in 4.0 mi NE 9.2 mph - N/A Snow Light Snow
5:55 PM 24.4 °F 15.6 °F 19.2 °F 81% 29.87 in 2.5 mi ENE 8.1 mph - N/A Snow Light Snow
6:15 PM 23.9 °F 15.0 °F 19.9 °F 85% 29.88 in 1.8 mi ENE 8.1 mph - N/A Snow Light Snow
6:35 PM 23.7 °F 14.7 °F 20.1 °F 86% 29.88 in 1.5 mi ENE 8.1 mph - N/A Snow Light Snow
6:55 PM 23.7 °F 15.6 °F 20.3 °F 87% 29.89 in 2.0 mi ENE 6.9 mph - N/A Snow Light Snow
7:15 PM 23.7 °F 14.7 °F 20.3 °F 87% 29.89 in 2.5 mi ENE 8.1 mph - N/A Snow Light Snow
7:35 PM 23.4 °F 14.3 °F 19.8 °F 86% 29.89 in 2.0 mi ENE 8.1 mph - N/A Snow Light Snow
7:55 PM 23.0 °F 13.1 °F 19.9 °F 88% 29.89 in 1.5 mi ENE 9.2 mph - N/A Snow Light Snow
8:15 PM 23.0 °F 15.8 °F 20.1 °F 89% 29.90 in 1.8 mi ENE 5.8 mph - N/A Snow Light Snow
8:35 PM 23.2 °F 14.1 °F 20.3 °F 89% 29.90 in 2.0 mi ENE 8.1 mph - N/A Snow Light Snow
8:55 PM 23.0 °F 13.1 °F 19.9 °F 88% 29.90 in 1.5 mi ENE 9.2 mph - N/A Snow Light Snow
9:15 PM 22.8 °F 12.9 °F 19.4 °F 87% 29.90 in 2.0 mi ENE 9.2 mph - N/A Snow Light Snow
9:35 PM 22.6 °F 11.9 °F 19.4 °F 87% 29.90 in 2.0 mi ENE 10.4 mph - N/A Snow Light Snow
9:55 PM 22.5 °F 12.4 °F 19.2 °F 87% 29.90 in 2.0 mi ENE 9.2 mph - N/A Snow Light Snow
10:15 PM 22.1 °F 12.8 °F 19.0 °F 88% 29.90 in 1.8 mi ENE 8.1 mph - N/A Snow Light Snow
10:35 PM 22.1 °F 13.7 °F 19.4 °F 89% 29.90 in 1.8 mi ENE 6.9 mph - N/A Snow Light Snow
10:55 PM 22.1 °F 14.7 °F 19.2 °F 89% 29.89 in 1.8 mi East 5.8 mph - 0.01 in Snow Light Snow
11:15 PM 21.7 °F 10.8 °F 18.3 °F 87% 29.89 in 2.5 mi ENE 10.4 mph - N/A Snow Light Snow
11:35 PM 21.4 °F 11.9 °F 18.0 °F 87% 29.89 in 2.5 mi ENE 8.1 mph - N/A Snow Light Snow
11:55 PM 21.2 °F 11.7 °F 17.6 °F 86% 29.89 in 3.0 mi East 8.1 mph - N/A Snow Light Snow